This demonstration page uses our WeatherBlox Daily Observations layout. Learn more.

Left ArrowRight Arrow

30.21309, -93.2044

Hourly Observations for May 25, 2015

Temp ( °F °C ) Dew Point ( °F °C ) Humidity (%) Winds ( mph kmh ) Pressure ( in mb ) Visibility ( mi km ) Precip ( " mm )
12:15 am 00:15 Cloudy 72 22 71 21.4 96 96 ESE 5 7 30.00 1016 10 16 0.00 0.00
12:35 am 00:35 Mostly Cloudy 71 21.8 70 21.3 97 97 ESE 3 6 30.00 1016 10 16 0.00 0.00
12:55 am 00:55 Clear 71 21.6 70 21.2 98 98 Calm 29.97 1015 7 11 0.00 0.00
1:15 am 01:15 Clear 70 21.2 70 20.9 98 98 Calm 29.97 1015 7 11 0.00 0.00
1:35 am 01:35 Clear 70 21.2 70 21 99 99 E 3 6 29.97 1015 7 11 0.00 0.00
1:55 am 01:55 Partly Cloudy 71 21.4 70 21 98 98 Calm 29.97 1015 7 11 0.00 0.00
2:15 am 02:15 Partly Cloudy with Mist and Fog 70 21.2 70 21 99 99 Calm 29.97 1015 4 6 0.00 0.00
2:35 am 02:35 Mostly Cloudy with Mist and Fog 70 21 69 20.8 99 99 Calm 29.97 1015 2 3 0.00 0.00
2:55 am 02:55 Partly Cloudy with Mist and Fog 69 20.7 69 20.5 99 99 Calm 29.97 1015 2 3 0.00 0.00
3:15 am 03:15 Partly Cloudy with Mist and Fog 69 20.5 69 20.4 99 99 E 5 7 29.97 1015 2 3 0.00 0.00
3:35 am 03:35 Clear with Mist and Fog 69 20.5 69 20.4 99 99 E 5 7 29.97 1015 4 6 0.00 0.00
3:55 am 03:55 Partly Cloudy with Mist and Fog 69 20.6 69 20.5 99 99 E 3 6 29.97 1015 5 8 0.00 0.00
4:15 am 04:15 Partly Cloudy with Mist and Fog 69 20.5 69 20.4 99 99 Calm 29.97 1015 4 6 0.00 0.00
4:35 am 04:35 Clear with Mist and Fog 69 20.5 69 20.3 99 99 Calm 29.97 1015 5 8 0.00 0.00
4:55 am 04:55 Clear with Mist and Fog 68 20.2 68 20.1 99 99 Calm 29.97 1015 3 5 0.00 0.00
5:15 am 05:15 Mostly Cloudy with Mist and Fog 68 19.8 67 19.7 99 99 Calm 30.00 1016 1 2 0.00 0.00
6:00 am 06:00 Mostly Cloudy 68 20 68 20 100 100 Calm 30.00 1016 7 11 0.00 0.00
6:55 am 06:55 Mostly Cloudy 70 21 70 21 100 100 Calm 30.00 1016 7 11 0.00 0.00
7:45 am 07:45 Mostly Cloudy 73 23 72 22 94 94 Calm 30.03 1017 10 16 0.00 0.00
8:45 am 08:45 Partly Cloudy 79 26 73 23 84 84 SE 12 19 30.03 1017 10 16 0.00 0.00
9:45 am 09:45 Partly Cloudy 81 27 73 23 79 79 SE 12 19 30.03 1017 10 16 0.00 0.00
10:45 am 10:45 Mostly Cloudy 84 29 73 23 70 70 SSE 12 19 30.03 1017 10 16 0.00 0.00
11:50 am 11:50 Mostly Cloudy 86 30 73 23 66 66 SSE 12 19 30.03 1017 10 16 0.00 0.00
12:55 pm 12:55 Mostly Cloudy 86 30 73 23 66 66 SSE 12 19 30.03 1017 10 16 0.00 0.00
1:47 pm 13:47 Mostly Cloudy 88 31 73 23 62 62 S 16 26 30.00 1016 10 16 0.00 0.00
5:55 pm 17:55 Partly Cloudy 84 29 73 23 70 70 S 17 28 29.91 1013 10 16 0.00 0.00
9:50 pm 21:50 Cloudy 79 26 75 24 89 89 SSE 10 17 29.97 1015 10 16 0.00 0.00
10:15 pm 22:15 Partly Cloudy 79 26 76 24.3 90 90 SSE 9 15 29.97 1015 7 11 0.00 0.00
10:35 pm 22:35 Mostly Cloudy 79 26.2 76 24.3 89 89 S 6 9 30.00 1016 7 11 0.00 0.00
10:55 pm 22:55 Mostly Cloudy 79 26.1 76 24.3 90 90 S 6 9 30.03 1017 7 11 0.00 0.00
11:15 pm 23:15 Cloudy 80 26.7 76 24.5 88 88 NNW 14 22 30.09 1019 10 16 0.00 0.00
11:35 pm 23:35 Cloudy with Heavy Rain 66 18.7 64 17.6 93 93 N 16 26 30.12 1020 3 5 0.05 1.27
11:55 pm 23:55 Cloudy with Strong Thunderstorms 64 17.7 64 17.5 99 99 NNW 8 13 30.09 1019 2 3 0.49 12.45

Powered by AerisWeather